SL-14 DEB

Satellite information

Favourite Embed

Satellite Type and Status

DEBRISIN ORBIT

Key statistics

Satellite SL-14 DEB at a glance.

Uptime

13838

Days in orbit

Revolutions

≈ 14.3

Per day

Orbit

LEO

Low Earth Orbit

Inclination

82.5

Latest

Satellite identification and parameters

Extended collection of information and parameters for SL-14 DEB.

Object identification

Identified? True

Debris? True

Object name: SL-14 DEB

International designator: 1987-068BC

Object number (NORAD): 25225

Object ID (CCSDS): 25225

Country: COMMONWEALTH OF INDEPENDENT STATES (CIS)

Current information (Y/N): Y

RCS size: SMALL

Orbital parameters

Period: 100.384 minutes

Inclination: 82.4973 deg

SMA: 7154.894 km

Apoapsis: 812.796 km

Periapsis: 740.722 km

RAAN: 6.698 deg

Eccentricy: 0.0050367

Argument of periapsis: 202.7294 deg

Mean anomaly: 225.1912 deg

Mean motion: 14.34491367 rev/day

Mean motion (dot): 0.00006935 rev/day2

B* drag term: 0.0024193 1/REarth

Two-line elements (TLE)

Creation date: July 6, 2025, 10:56 p.m.

Reference frame: TEME

Reference center: EARTH

Epoch: July 6, 2025, 8:27 p.m. UTC

TLE line 0: 0 SL-14 DEB

TLE line 1: 1 25225U 87068BC 25187.85223677 .00006935 00000-0 24193-2 0 9992

TLE line 2: 2 25225 82.4973 6.6980 0050367 202.7294 225.1912 14.34491367395222

Live tracking on map

Real-time ground track for satellite SL-14 DEB.

In-orbit conjunctions

A list of the most updated potential collisions computed for object SL-14 DEB.

Target Orbit TCA Probability of collision Miss distance Type
NOAA 16 DEB SSO 2025-04-21 23:34:23 0.000103669 276.0 (m) DEBRIS
CZ-4 DEB SSO 2025-03-02 17:16:15 0.0001599289 141.0 (m) DEBRIS

Associated space launch

Second generation soviet meteorological satellite

SL-14 DEB was lifted into orbit during the mission ‘Tsiklon-3 | Meteor-2 16’, on board a Tsiklon-3 space rocket.

The launch took place on Aug. 18, 1987, 2:27 a.m. from 32/1.

For more information about the launch, click the button.

Launch to space Tsiklon-3 | Meteor-2 16
Tsiklon-3 | Meteor-2 16

Agency: N/A

Status: Launch Successful

Launch date: Aug. 18, 1987, 2:27 a.m. UTC

Rocket: Tsiklon-3

Launch pad: 32/1

Location: Plesetsk Cosmodrome, Russian Federation

...

Latest news about this satellite

There are no fresh news available about this satellite. Check back as we update our databases every day.


Newsletter sign-up

Weekly statistics, charts and insights to help you stay on top of the space industry.